GFSFLT1_925_thetae_105.txt.gz
Theta_e
337 338 342 342 341 340 338 337 340 337 335 332 331 326 325 326 332 335 337 339 337 340 342 343 343 343 343 343 344 344 343 338 339
339 338 338 339 340 338 336 333 337 335 332 330 325 324 324 325 327 329 333 337 341 337 339 340 343 342 342 342 343 343 342 341 340
339 338 338 337 336 335 333 329 333 332 327 319 315 319 322 323 325 326 328 333 338 339 339 339 338 340 342 341 341 342 341 341 341
336 335 335 334 332 331 327 325 329 328 321 314 309 311 318 324 326 325 326 328 332 336 336 337 336 337 338 341 341 341 340 340 339
334 331 328 324 320 320 319 320 324 322 312 308 305 309 316 320 323 324 325 327 328 329 331 333 334 334 335 336 338 340 339 339 339
326 326 324 321 318 316 317 319 320 309 307 306 311 316 323 324 322 322 324 326 327 327 327 328 330 332 333 335 335 337 338 337 337
321 318 317 317 316 316 310 307 307 307 306 304 306 313 323 326 327 323 323 326 327 326 326 327 327 328 329 330 331 332 334 336 336
313 315 313 312 310 309 308 307 307 307 307 306 306 307 314 322 326 327 326 328 326 323 323 324 325 323 324 325 328 330 332 332 334
310 310 308 308 308 308 308 308 307 307 307 307 307 306 306 310 319 323 325 323 322 322 323 323 321 321 320 321 322 323 326 328 328
309 309 308 308 308 308 308 308 308 308 307 307 307 307 307 306 306 314 318 319 319 318 318 317 317 317 317 318 318 319 320 321 325
309 309 309 309 309 309 309 308 308 308 308 308 307 307 307 307 306 305 306 308 312 312 313 313 313 314 314 314 314 315 316 317 318
309 309 309 309 309 309 309 309 308 308 308 308 308 307 308 307 306 305 304 305 305 305 309 310 311 311 313 313 313 313 313 313 314
309 309 309 309 309 309 309 310 309 309 309 308 308 307 307 308 307 306 305 306 305 305 305 305 306 308 310 310 310 311 310 311 312
309 309 309 309 309 309 310 310 310 310 309 309 308 309 308 308 307 307 305 305 306 305 305 304 304 304 305 307 307 308 308 308 310
310 310 309 309 309 309 309 309 310 309 309 309 309 308 308 309 307 307 306 305 305 305 305 304 304 303 305 305 305 305 305 306 306
310 310 309 309 309 309 308 309 309 309 309 309 309 308 307 307 308 307 306 305 305 305 305 304 304 303 303 302 303 303 303 304 305
310 310 309 309 309 309 309 309 309 309 310 309 307 303 306 307 307 306 305 304 304 304 304 303 303 302 302 301 301 301 303 303 303
310 310 309 309 309 309 309 309 309 309 309 309 307 303 303 303 305 305 305 304 305 304 302 301 301 300 300 300 300 300 300 303 303
310 309 310 310 309 309 309 310 309 310 310 309 308 308 307 303 303 306 305 304 304 302 302 302 301 300 299 299 298 298 298 300 304
310 310 310 310 309 309 309 309 310 310 310 309 308 307 306 305 302 301 304 303 303 302 301 300 298 297 297 296 296 299 301 302 303

GFSFLT1_925_thetae_111.txt.gz
Theta_e
344 343 341 338 340 340 339 336 334 332 331 331 331 332 335 336 336 340 336 339 342 342 342 342 342 343 343 343 343 343 342 340 342
342 342 341 338 341 340 337 335 333 330 329 328 326 326 332 334 335 339 339 337 338 339 341 342 342 342 342 342 341 340 342 342 340
340 339 339 336 338 339 336 331 328 327 327 327 325 323 326 330 332 334 335 335 337 338 339 340 341 341 341 340 340 338 337 338 339
337 337 337 335 334 337 333 329 326 323 325 326 325 323 325 327 329 330 331 332 334 335 333 334 338 339 340 340 340 340 337 337 338
336 336 335 332 331 335 328 325 323 322 324 322 321 322 324 326 328 328 329 330 332 332 332 333 334 336 338 339 339 339 339 338 336
333 329 329 327 328 330 324 323 323 324 323 317 319 323 325 326 327 327 327 328 328 328 327 329 331 332 333 335 335 335 336 337 337
327 324 324 325 327 326 322 312 310 315 322 323 320 324 327 328 326 325 326 326 325 325 325 325 325 326 328 330 332 332 332 333 335
323 321 320 322 324 320 307 305 308 315 321 324 323 324 326 326 324 325 326 324 323 322 321 321 321 322 322 323 324 326 330 331 331
322 320 319 315 315 307 305 306 306 308 312 319 324 324 323 322 322 322 321 320 319 320 319 319 319 319 319 319 319 320 321 323 326
318 316 315 309 307 306 307 307 307 307 306 307 310 315 316 317 318 316 316 317 318 318 318 319 318 317 317 316 317 317 318 319 320
313 311 311 307 307 307 307 307 307 307 307 307 306 306 307 308 308 313 314 315 315 316 316 316 316 316 315 315 314 315 316 317 316
308 307 307 307 307 307 307 307 307 307 307 307 307 306 305 305 306 306 307 309 311 313 313 313 313 313 313 313 312 312 312 313 314
308 307 307 307 307 307 307 307 307 307 307 307 307 307 306 305 305 305 305 306 306 306 306 309 311 311 311 311 310 310 310 310 311
308 308 308 308 308 307 307 307 308 307 307 307 307 307 307 306 305 305 305 305 305 305 304 304 304 307 310 310 310 308 308 309 309
308 308 308 308 308 308 308 308 308 308 308 307 308 308 307 306 306 305 305 305 305 305 305 304 304 304 304 303 307 308 307 307 307
309 308 308 308 308 309 309 308 308 308 308 308 307 306 306 307 307 306 305 304 304 305 305 304 304 304 303 302 302 302 306 307 308
309 308 309 308 308 309 309 309 308 308 308 309 308 310 308 306 306 305 305 304 304 304 304 303 303 302 301 301 300 300 301 305 306
308 308 309 308 308 308 308 309 308 308 308 308 308 309 311 307 305 304 303 303 303 303 303 302 301 301 301 301 301 301 300 303 304
308 307 308 308 308 308 308 308 308 308 310 307 307 307 307 310 310 304 303 303 302 301 301 301 301 301 300 298 297 296 297 301 302
310 308 307 308 308 308 308 308 308 308 308 308 308 307 306 306 309 310 306 302 302 301 301 301 299 298 297 296 295 295 298 300 300

GFSFLT1_925_thetae_114.txt.gz
Theta_e
344 342 340 342 341 339 337 335 333 333 333 334 335 337 338 340 338 336 340 342 343 343 343 343 343 343 343 342 343 342 342 342 342
342 342 339 342 340 338 337 334 332 331 330 331 332 334 336 339 338 337 338 339 342 342 342 342 342 342 340 337 338 339 341 342 342
340 341 341 340 340 337 333 331 330 329 329 329 326 331 333 335 335 335 337 337 339 340 341 341 341 341 341 341 338 338 339 339 341
341 340 337 340 338 334 331 328 328 328 328 328 327 327 329 330 330 331 334 334 337 337 337 339 339 339 340 340 340 338 337 337 337
336 337 335 337 336 331 328 325 325 326 327 327 324 325 326 328 328 329 330 331 332 333 334 336 337 337 338 337 339 339 339 337 336
336 335 333 335 333 328 326 325 325 324 324 321 323 324 326 326 326 327 328 328 328 328 329 331 332 334 334 335 335 336 337 337 337
331 331 328 332 329 325 326 326 323 321 320 322 325 326 325 325 326 326 326 326 325 325 325 325 326 327 328 330 332 333 334 334 334
326 326 326 329 325 320 316 317 319 321 322 322 325 325 323 324 325 324 324 323 323 322 322 323 322 322 322 322 323 326 328 330 331
325 323 324 325 320 311 311 313 318 320 320 321 322 321 321 322 321 320 321 322 322 322 321 321 320 320 320 320 321 321 321 322 325
323 321 319 317 311 309 310 311 313 314 316 318 318 317 317 318 317 318 319 320 321 321 320 319 319 318 317 317 318 319 318 318 319
320 318 315 311 310 310 310 311 311 311 311 312 313 313 314 314 316 316 317 317 318 318 318 317 317 317 316 315 315 315 315 316 317
317 314 311 310 310 310 310 310 310 311 311 311 311 311 311 311 312 314 314 313 314 315 315 315 315 314 314 313 313 313 313 314 314
312 311 310 309 309 309 310 310 310 310 311 311 310 310 310 310 310 310 311 311 312 308 308 312 313 313 313 312 311 311 311 311 311
311 310 310 309 310 310 310 311 311 311 310 310 310 311 310 310 309 309 310 308 309 309 305 305 305 310 311 310 311 310 310 309 309
310 310 310 310 310 311 311 311 311 311 311 310 311 310 310 310 310 309 308 309 308 308 308 308 307 304 304 306 309 309 309 309 309
309 310 309 311 311 311 311 311 312 312 311 311 311 310 310 310 309 309 308 308 308 308 307 307 306 306 304 304 303 304 307 307 307
308 308 309 311 312 312 312 312 312 312 311 312 312 313 311 309 309 308 308 308 307 306 305 305 305 305 305 303 302 302 302 305 306
308 308 308 310 311 312 312 313 313 312 311 310 311 312 312 312 309 308 308 307 307 306 305 304 304 304 304 303 303 302 300 301 303
309 306 306 307 308 308 309 310 312 312 311 310 310 310 311 312 313 309 308 307 307 306 305 304 303 303 302 301 300 298 296 297 301
315 310 308 307 307 307 308 309 310 311 311 312 311 310 310 310 312 313 311 307 305 305 305 304 303 303 302 301 299 297 296 299 300

GFSFLT1_925_thetae_117.txt.gz
Theta_e
343 343 343 342 339 337 336 334 334 334 336 337 338 341 337 338 338 341 342 343 344 344 343 342 338 337 337 339 341 342 342 343 343
342 341 342 341 339 337 335 333 332 331 332 334 336 337 337 337 336 339 340 341 342 343 342 342 343 339 337 338 338 341 342 342 342
342 341 341 340 338 335 333 332 330 330 331 332 333 334 334 334 335 336 338 338 340 342 342 341 341 341 341 337 338 337 339 340 340
342 341 340 340 335 332 331 330 329 329 329 325 329 329 330 331 333 333 334 336 337 339 339 340 340 340 340 341 340 337 336 336 338
340 337 339 338 334 330 328 328 328 328 326 322 325 327 328 329 329 329 330 332 333 335 336 337 337 338 338 339 339 338 338 337 337
338 336 337 334 331 328 327 327 326 324 318 324 325 327 326 327 327 327 328 329 329 329 330 331 332 334 335 336 336 337 337 337 336
336 334 335 332 328 327 327 319 320 321 323 326 327 325 326 325 325 326 326 326 326 325 325 325 326 326 328 330 331 332 333 334 335
331 330 332 329 326 322 319 322 323 322 323 326 325 324 325 324 323 324 324 324 324 324 323 323 323 323 323 323 324 324 326 328 330
328 327 329 327 319 315 315 319 322 322 322 323 322 323 324 321 321 322 323 324 323 323 322 321 321 321 321 320 320 321 321 321 323
325 324 325 323 314 312 314 317 319 320 321 320 319 320 320 319 320 321 321 322 322 322 321 320 319 319 318 318 318 318 318 319 319
324 323 319 317 312 312 313 313 314 315 316 316 316 316 317 317 318 318 319 319 319 319 319 319 318 317 317 316 316 316 316 316 317
322 320 315 312 312 312 312 313 313 313 313 313 313 313 314 316 317 316 315 316 316 316 316 316 316 316 315 314 314 314 313 314 314
319 316 312 312 311 312 312 312 313 313 313 312 312 312 312 312 313 314 314 313 312 309 313 315 315 314 313 313 312 312 312 312 312
315 313 312 311 311 312 312 312 312 313 312 312 312 312 312 312 311 311 312 311 312 310 305 305 307 311 312 312 312 311 311 311 311
312 312 312 311 312 312 312 313 312 312 312 311 312 312 312 312 312 311 311 311 311 311 311 310 308 305 306 309 310 310 310 310 309
312 312 311 312 312 312 312 313 313 313 312 312 313 312 312 312 312 311 310 311 310 311 310 309 308 308 307 304 303 305 308 308 308
312 311 311 312 312 313 313 313 313 313 313 313 313 315 312 311 311 311 311 310 309 309 308 308 307 307 307 305 304 304 304 305 305
310 311 311 311 313 313 313 314 314 314 313 313 313 314 314 314 311 310 310 309 309 309 308 307 306 306 306 305 304 303 301 299 302
309 309 310 311 312 313 313 313 314 314 313 312 311 311 312 315 316 311 310 310 309 309 308 307 306 305 305 304 303 302 300 296 298
308 308 308 308 308 309 309 310 310 311 312 313 312 311 311 311 312 315 312 310 309 308 307 306 306 305 304 303 302 300 297 296 299

GFSFLT1_925_thetae_123.txt.gz
Theta_e
344 341 339 337 336 334 335 339 340 340 337 335 335 336 339 339 340 341 342 342 344 341 339 335 336 338 339 340 342 342 343 343 343
343 340 338 337 335 332 332 333 338 336 334 337 337 334 335 338 339 340 340 341 342 342 342 342 339 335 336 338 339 341 342 342 341
342 340 337 336 334 331 329 326 334 330 334 335 336 332 332 332 336 337 338 339 340 341 341 340 340 339 338 335 337 338 340 341 341
341 340 337 335 333 331 325 320 331 329 333 331 330 330 330 330 332 335 336 337 338 339 339 339 339 339 338 338 336 334 336 338 339
340 338 336 333 332 329 319 316 328 327 328 330 327 326 328 328 328 330 331 332 333 335 335 335 336 336 337 337 336 336 334 334 335
338 335 334 332 330 321 310 318 326 327 326 326 326 324 325 326 327 327 328 328 328 329 329 330 330 331 332 333 333 334 334 334 333
336 333 332 330 324 309 317 325 325 326 326 325 324 323 324 325 326 326 326 326 326 326 325 325 325 325 325 326 326 329 330 331 331
333 331 328 316 319 317 321 321 322 323 325 324 323 322 323 325 324 325 325 325 325 324 324 323 323 323 323 323 323 323 324 324 326
332 329 325 311 321 322 323 322 324 324 325 324 322 319 323 324 324 324 324 324 324 323 322 322 322 322 322 321 321 320 320 320 320
328 328 320 312 316 319 322 322 322 322 324 322 320 319 322 323 323 323 323 323 323 322 321 321 320 320 319 319 318 319 318 318 318
328 329 322 315 314 319 321 320 317 318 321 320 319 319 320 321 321 321 321 321 321 321 320 320 319 318 318 317 317 317 316 316 316
328 330 319 313 313 317 316 315 316 315 317 318 318 317 316 318 319 319 319 318 318 319 319 318 318 317 317 316 315 315 315 315 314
326 323 318 312 312 314 313 313 314 314 314 316 317 317 316 314 314 313 313 313 314 316 317 316 317 316 316 315 315 314 313 313 312
323 321 317 311 312 312 313 312 312 312 312 312 313 316 316 315 314 313 312 311 307 308 310 312 315 315 315 314 314 313 313 312 311
321 317 313 311 312 312 312 312 312 312 312 312 311 312 312 313 313 313 313 312 310 308 308 307 308 313 314 313 312 312 312 310 309
317 313 311 311 312 312 312 312 312 312 312 312 312 312 311 311 311 311 311 310 309 310 309 310 308 308 306 306 308 310 310 308 307
315 312 311 311 312 312 312 312 312 312 311 311 311 307 310 311 311 311 311 311 310 310 309 309 308 308 307 306 305 304 304 305 305
312 312 311 311 312 312 312 312 312 312 312 312 312 309 309 309 310 311 310 310 310 309 309 308 308 307 306 306 305 304 303 302 301
312 312 311 312 312 312 313 313 313 313 312 310 310 310 310 308 309 310 310 310 310 309 308 307 307 306 306 305 304 304 304 302 300
312 311 311 312 313 313 313 313 313 313 311 312 311 311 311 310 308 306 310 309 309 309 309 307 306 305 305 305 304 304 304 301 299